[[{"header":{"parameterUnit":"m.s-1","parameterCategory":1,"la1":30.2991,"la2":30.254,"lo1":-89.0895,"lo2":-89.0444,"dy":0.0017,"dx":0.0017,"nx":28,"ny":28,"refTime":"2025-03-10T21:00:00:Z","depth":0,"parameterNumber":2,"parameterNumberName":"U-component_of_WINDS"},"data":[0,0,0,0,0,0,0,0,0,0,0,0,0,0,0,0,0,0,0,0,0,0,0,0,0,0,0,0,0,0,0,0,0,0,0,0,0,0,0,0,0,0,0,0,0,0,0,0,0,0,0,0,0,0,0,0,0,0,1.0773,1.0775,0,1.0877,1.0878,1.0879,1.0927,1.0927,1.0927,1.0927,1.1037,1.104,1.1043,0,0,0,0,0,0,0,0,0,0,0,0,0,1.0622,1.0625,1.0773,1.0775,1.0776,1.0877,1.0878,1.0879,1.0927,1.0927,1.0927,1.0927,1.1036,1.104,1.1044,0,0,0,0,0,0,0,0,0,0,0,0,0,1.0703,1.0626,1.0773,1.0812,1.0816,1.0876,1.0878,1.088,1.0927,1.0927,1.0927,1.0926,1.1035,1.104,1.1044,1.1075,0,0,1.1058,1.106,0,0,0,0,0,0,0,0,1.0698,1.0709,1.0805,1.0809,1.0814,1.0889,1.0865,1.0945,1.0927,1.0885,1.0927,1.0926,1.0988,1.0997,1.1017,1.108,1.1085,1.1058,1.1061,1.1063,1.1064,0,0,0,0,0,0,0,1.0693,1.0704,1.0814,1.0806,1.0812,1.0825,1.0837,1.0881,1.0936,1.0889,1.0892,1.0904,1.0991,1.1012,1.102,1.1087,1.1058,1.1062,1.1065,1.1067,1.1182,1.1183,0,0,0,0,0,0,1.068,1.0699,1.0811,1.0818,1.0755,1.0828,1.0841,1.0865,1.0936,1.0947,1.0904,1.0905,1.1004,1.1014,1.1024,1.1065,1.1063,1.1067,1.107,1.1182,1.1183,1.1183,0,0,0,0,0,0,1.0677,1.069,1.0807,1.076,1.0775,1.0831,1.0858,1.0867,1.0888,1.0947,1.0958,1.0915,1.1005,1.1017,1.1062,1.107,1.1069,1.1074,1.1182,1.1182,1.1183,1.1148,0,0,0,0,0,0,1.0672,1.0688,1.0699,1.0759,1.0778,1.0842,1.0858,1.0869,1.0895,1.0899,1.096,1.0971,1.1005,1.1055,1.1066,1.1076,1.1077,1.1181,1.1182,1.1183,1.1149,1.1147,1.1146,0,0,0,0,0,1.0667,1.0686,1.07,1.0713,1.0792,1.0842,1.0853,1.0891,1.0896,1.0908,1.0946,1.0969,1.1067,1.1059,1.1072,1.1083,1.1181,1.1182,1.1182,1.1149,1.1147,1.1146,0,0,0,0,0,0,1.0627,1.0695,1.071,1.075,1.0789,1.085,1.0867,1.0888,1.0929,1.093,1.0978,1.0991,1.1032,1.1062,1.1052,1.1118,1.1126,1.113,1.1096,1.1095,1.1094,1.1086,1.1081,0,0,0,0,0,1.0623,1.0656,1.0714,1.0743,1.0762,1.0811,1.0834,1.086,1.0904,1.0921,1.0963,1.1006,1.1047,1.1073,1.1113,1.1153,1.1168,1.1168,1.1166,1.1165,1.1167,1.1192,1.1192,1.1185,1.1185,1.1185,0,0,1.0614,1.0655,1.0674,1.0736,1.077,1.0805,1.0825,1.086,1.0887,1.0927,1.0972,1.1003,1.1055,1.1097,1.1118,1.1124,1.1173,1.1166,1.1164,1.1168,1.1193,1.1193,1.1194,1.1186,1.1186,1.1186,0,0,1.0617,1.0651,1.0679,1.0712,1.0763,1.0796,1.0802,1.086,1.0882,1.0927,1.0958,1.0991,1.106,1.1096,1.1123,1.1139,1.1162,1.1152,1.1144,1.1168,1.1168,1.1169,1.1175,1.1177,1.1154,1.1154,1.1154,0,1.06,1.0652,1.0691,1.0725,1.0752,1.0789,1.0818,1.085,1.0912,1.093,1.0936,1.1023,1.106,1.1112,1.1116,1.1136,1.1147,1.1145,1.1165,1.1166,1.1167,1.1174,1.1176,1.1152,1.1152,1.1153,1.1153,0,1.063,1.0665,1.0682,1.074,1.0769,1.08,1.0846,1.0871,1.0895,1.0927,1.0973,1.1019,1.107,1.1084,1.1108,1.114,1.1142,1.1155,1.1164,1.1165,1.1173,1.1175,1.115,1.115,1.1151,1.1151,0,0,1.061,1.0688,1.0694,1.0721,1.078,1.0809,1.0843,1.0891,1.0912,1.0954,1.0985,1.1042,1.1055,1.1086,1.1114,1.1135,1.1145,1.1146,1.1148,1.1145,1.1184,1.1173,1.1175,1.1161,1.1161,1.1162,1.118,0,1.062,1.0681,1.0718,1.0764,1.0798,1.0834,1.0864,1.0905,1.0936,1.0971,1.1006,1.1046,1.106,1.1079,1.11,1.1139,1.1154,1.1139,1.1191,1.1192,1.1177,1.1179,1.1168,1.1183,1.1183,1.1183,1.1183,0,1.0641,1.068,1.073,1.0786,1.0801,1.0827,1.0875,1.0907,1.0954,1.0976,1.101,1.1039,1.1078,1.1084,1.1139,1.1128,1.1152,1.1174,1.1176,1.1183,1.1188,1.1186,1.1188,1.119,1.1188,1.1188,1.1187,0,1.0621,1.0687,1.0726,1.0748,1.0813,1.0831,1.086,1.0906,1.0933,1.0976,1.0994,1.1041,1.1066,1.1103,1.1144,1.1144,1.1195,1.1205,1.1216,1.1215,1.1225,1.1224,1.1231,1.124,1.124,1.124,1.1239,0,1.0629,1.0659,1.0718,1.0741,1.0776,1.0818,1.0851,1.0883,1.0925,1.0956,1.0991,1.102,1.1073,1.1109,1.1142,1.1183,1.1194,1.1214,1.1222,1.1211,1.1208,1.1227,1.1227,1.124,1.124,1.124,1.124,0,1.0613,1.0654,1.0698,1.0757,1.0773,1.0795,1.0846,1.0871,1.0905,1.0944,1.0956,1.1009,1.1054,1.1098,1.1159,1.1181,1.1222,1.1233,1.1205,1.121,1.1218,1.1217,1.1238,1.1243,1.1248,1.1247,1.1247,0,1.0616,1.0639,1.07,1.0723,1.075,1.0787,1.0814,1.0858,1.0885,1.0941,1.0959,1.1006,1.1046,1.1116,1.1161,1.1207,1.122,1.1224,1.1228,1.1215,1.1221,1.1219,1.1222,1.1223,1.1223,1.1222,1.1222,0,1.0616,1.0635,1.0672,1.0717,1.0748,1.0786,1.0825,1.0842,1.0894,1.0923,1.0968,1.0999,1.106,1.1107,1.1158,1.119,1.1215,1.1221,1.1226,1.1215,1.1198,1.1207,1.1201,1.122,1.122,1.1221,1.1221,1.1221,1.061,1.0632,1.0678,1.0719,1.0753,1.0789,1.0815,1.0851,1.0889,1.0941,1.0965,1.1011,1.1059,1.1131,1.1162,1.12,1.1206,1.1213,1.1215,1.1217,1.1214,1.1191,1.1209,1.1209,1.121,1.121,1.121,0,1.0612,1.0643,1.068,1.0733,1.0766,1.0785,1.083,1.0856,1.0895,1.0937,1.0975,1.1028,1.1073,1.1121,1.117,1.1191,1.1203,1.1202,1.1201,1.1208,1.1205,1.1196,1.1191,1.1191,1.1191,1.1191,1.1191,1.1191,1.0617,1.0656,1.068,1.0737,1.0769,1.0813,1.0837,1.087,1.0904,1.0961,1.0998,1.1029,1.1074,1.1126,1.1169,1.1182,1.1199,1.1194,1.1211,1.1207,1.1208,1.121,1.1201,1.1197,1.1197,1.1211,1.1211,1.1211]},{"header":{"parameterUnit":"m.s-1","parameterCategory":1,"la1":30.2991,"la2":30.254,"lo1":-89.0895,"lo2":-89.0444,"dy":0.0017,"dx":0.0017,"nx":28,"ny":28,"refTime":"2025-03-10T21:00:00:Z","depth":0,"parameterNumber":3,"parameterNumberName":"V-component_of_WINDS"},"data":[0,0,0,0,0,0,0,0,0,0,0,0,0,0,0,0,0,0,0,0,0,0,0,0,0,0,0,0,0,0,0,0,0,0,0,0,0,0,0,0,0,0,0,0,0,0,0,0,0,0,0,0,0,0,0,0,0,0,3.2269,3.2269,0,3.2238,3.2238,3.2238,3.2251,3.2251,3.2252,3.2253,3.2214,3.2213,3.2211,0,0,0,0,0,0,0,0,0,0,0,0,0,3.2332,3.2331,3.2269,3.2269,3.2268,3.2238,3.2238,3.2238,3.2251,3.2252,3.2252,3.2253,3.2215,3.2213,3.2211,0,0,0,0,0,0,0,0,0,0,0,0,0,3.2303,3.2331,3.2269,3.2271,3.2271,3.2239,3.2238,3.2237,3.225,3.2252,3.2253,3.2254,3.2216,3.2213,3.2211,3.2172,0,0,3.2203,3.2202,0,0,0,0,0,0,0,0,3.2305,3.2301,3.2271,3.2271,3.2271,3.225,3.2246,3.2215,3.225,3.2258,3.2253,3.2254,3.2225,3.2222,3.2213,3.217,3.2168,3.2202,3.2201,3.22,3.2199,0,0,0,0,0,0,0,3.2307,3.2302,3.2257,3.2271,3.2271,3.2272,3.2269,3.224,3.2235,3.2257,3.2258,3.2255,3.2225,3.2216,3.2212,3.2168,3.2203,3.22,3.2199,3.2198,3.209,3.2088,0,0,0,0,0,0,3.231,3.2304,3.2258,3.2256,3.2291,3.227,3.2266,3.2255,3.2236,3.2234,3.2254,3.2256,3.2219,3.2215,3.2211,3.2163,3.22,3.2197,3.2196,3.2091,3.2089,3.2088,0,0,0,0,0,0,3.2311,3.2306,3.2259,3.228,3.2274,3.2267,3.2255,3.2254,3.2245,3.2233,3.2231,3.2246,3.222,3.2215,3.2182,3.2162,3.2196,3.2194,3.2093,3.2091,3.2089,3.2068,0,0,0,0,0,0,3.2313,3.2306,3.2293,3.228,3.2273,3.2232,3.2253,3.2253,3.2241,3.2243,3.2225,3.2223,3.2221,3.2185,3.2179,3.2159,3.2192,3.2094,3.2092,3.2089,3.207,3.2066,3.2062,0,0,0,0,0,3.2315,3.2287,3.2292,3.2286,3.2257,3.2231,3.2227,3.2227,3.224,3.2225,3.2217,3.2224,3.2166,3.2182,3.2175,3.2154,3.2095,3.2092,3.209,3.2072,3.2067,3.2062,0,0,0,0,0,0,3.2295,3.2285,3.2291,3.2258,3.2246,3.2233,3.2215,3.2221,3.2203,3.2205,3.2203,3.2199,3.2165,3.2156,3.2175,3.2115,3.2132,3.2128,3.2122,3.2116,3.2112,3.2114,3.219,0,0,0,0,0,3.2288,3.227,3.2261,3.2233,3.2226,3.2222,3.2211,3.2212,3.2198,3.2192,3.2182,3.2166,3.2144,3.213,3.2109,3.207,3.2065,3.2052,3.2047,3.2044,3.2039,3.2016,3.201,3.2078,3.2078,3.2078,0,0,3.227,3.2263,3.2251,3.2228,3.2219,3.2198,3.2217,3.2195,3.2179,3.2188,3.2156,3.2148,3.2131,3.2094,3.2077,3.2086,3.2019,3.204,3.2037,3.2035,3.2013,3.2006,3.2,3.2076,3.2077,3.2077,0,0,3.2228,3.2222,3.2197,3.2188,3.2174,3.2171,3.2165,3.2152,3.2148,3.2117,3.2123,3.2103,3.2066,3.2053,3.2041,3.1995,3.1999,3.1988,3.1964,3.1942,3.1936,3.1931,3.1913,3.1907,3.1984,3.1984,3.1984,0,3.2208,3.218,3.2183,3.216,3.2149,3.2159,3.2133,3.2123,3.2102,3.2093,3.2104,3.2057,3.2046,3.2006,3.1994,3.1985,3.1976,3.1989,3.1937,3.1932,3.1928,3.1911,3.1904,3.1982,3.1982,3.1983,3.1983,0,3.2155,3.2135,3.2116,3.2098,3.2085,3.2061,3.2058,3.2044,3.2047,3.2042,3.2009,3.1997,3.1973,3.1964,3.1965,3.1923,3.1929,3.1938,3.1956,3.192,3.1904,3.1897,3.198,3.1981,3.1981,3.1982,0,0,3.2098,3.2084,3.2077,3.2068,3.2054,3.2037,3.2013,3.1992,3.1979,3.1965,3.1942,3.1911,3.1919,3.1906,3.1906,3.1887,3.1849,3.1898,3.1897,3.1888,3.18,3.1793,3.1785,3.1852,3.1851,3.185,3.1801,0,3.2055,3.2014,3.2016,3.1977,3.1957,3.1966,3.1945,3.1932,3.1927,3.1908,3.1901,3.1879,3.1893,3.1885,3.1866,3.1857,3.1831,3.1861,3.1829,3.1828,3.1832,3.1777,3.1769,3.1724,3.1795,3.1794,3.1793,0,3.1998,3.1984,3.1943,3.1932,3.1923,3.1904,3.1885,3.1868,3.1853,3.185,3.1836,3.1839,3.1811,3.183,3.1791,3.1811,3.1798,3.1792,3.179,3.1786,3.1808,3.177,3.1709,3.1702,3.1784,3.1784,3.1785,0,3.196,3.193,3.1902,3.1894,3.1881,3.1866,3.1859,3.1846,3.1834,3.1816,3.1807,3.1786,3.1774,3.1756,3.1752,3.1767,3.1712,3.1731,3.1707,3.1707,3.1694,3.1695,3.163,3.1688,3.1688,3.1688,3.1688,0,3.191,3.1884,3.1884,3.1867,3.1838,3.184,3.181,3.1804,3.1792,3.1772,3.1778,3.1758,3.1755,3.1733,3.173,3.1697,3.1692,3.1687,3.1686,3.1686,3.1686,3.1676,3.1679,3.1686,3.1687,3.1687,3.1688,0,3.1861,3.1861,3.183,3.1821,3.1817,3.1796,3.1786,3.1768,3.1764,3.1738,3.1732,3.1725,3.17,3.1695,3.1665,3.1663,3.1623,3.1626,3.1629,3.1629,3.1604,3.1606,3.1529,3.1519,3.1585,3.1585,3.1584,0,3.1829,3.181,3.1798,3.1787,3.178,3.176,3.1748,3.1748,3.1735,3.1717,3.17,3.1677,3.1658,3.1618,3.1608,3.1585,3.1586,3.1561,3.1582,3.1583,3.1584,3.1585,3.1582,3.1556,3.1555,3.1555,3.1554,0,3.1771,3.1772,3.1756,3.1739,3.1724,3.171,3.1697,3.1686,3.1685,3.1669,3.1645,3.1631,3.1601,3.1577,3.1554,3.1544,3.1548,3.1548,3.1541,3.154,3.1542,3.1539,3.1616,3.1549,3.155,3.155,3.155,3.1551,3.1729,3.1712,3.1702,3.1683,3.1673,3.1661,3.1643,3.1638,3.1619,3.1597,3.1598,3.1571,3.1556,3.1526,3.1514,3.1492,3.1499,3.1489,3.1487,3.1484,3.1481,3.1547,3.1487,3.1488,3.1488,3.1488,3.1488,0,3.167,3.1665,3.1647,3.163,3.1614,3.1623,3.1608,3.1594,3.1571,3.1558,3.154,3.1511,3.1488,3.1477,3.1453,3.1437,3.1438,3.1431,3.1431,3.1428,3.1476,3.1484,3.143,3.143,3.143,3.143,3.143,3.143,3.1638,3.161,3.161,3.1576,3.157,3.1546,3.1537,3.1524,3.1514,3.1483,3.1464,3.1458,3.1445,3.1421,3.1399,3.1396,3.1386,3.1377,3.1375,3.1419,3.1425,3.1431,3.1438,3.1375,3.1375,3.1329,3.1328,3.1328]}]]